[[{"header":{"parameterUnit":"m.s-1","parameterCategory":1,"la1":30.2991,"la2":30.254,"lo1":-89.0895,"lo2":-89.0444,"dy":0.0017,"dx":0.0017,"nx":28,"ny":28,"refTime":"2025-11-19T03:00:00:Z","depth":0,"parameterNumber":2,"parameterNumberName":"U-component_of_WINDS"},"data":[0,0,0,0,0,0,0,0,0,0,0,0,0,0,0,0,0,0,0,0,0,0,0,0,0,0,0,0,0,0,0,0,0,0,0,0,0,0,0,0,0,0,0,0,0,0,0,0,0,0,0,0,0,0,0,0,0,0,-3.2357,-3.2357,0,-3.2375,-3.2375,-3.2375,-3.2302,-3.23,-3.2297,-3.2295,-3.2314,-3.2316,-3.2319,0,0,0,0,0,0,0,0,0,0,0,0,0,-3.226,-3.2262,-3.2357,-3.2357,-3.2357,-3.2375,-3.2375,-3.2375,-3.2302,-3.23,-3.2297,-3.2294,-3.2313,-3.2316,-3.2319,0,0,0,0,0,0,0,0,0,0,0,0,0,-3.2292,-3.2263,-3.2357,-3.2323,-3.232,-3.2375,-3.2375,-3.2375,-3.2303,-3.2299,-3.2296,-3.2293,-3.2312,-3.2316,-3.2319,-3.2407,0,0,-3.2331,-3.2332,0,0,0,0,0,0,0,0,-3.2291,-3.2296,-3.2328,-3.2325,-3.2322,-3.2333,-3.2347,-3.2386,-3.2304,-3.2309,-3.2295,-3.2292,-3.2323,-3.2325,-3.2336,-3.2408,-3.2409,-3.2331,-3.2333,-3.2335,-3.2336,0,0,0,0,0,0,0,-3.2288,-3.2295,-3.2364,-3.2328,-3.2325,-3.2307,-3.2308,-3.2354,-3.2334,-3.2309,-3.2303,-3.2306,-3.2321,-3.2332,-3.2336,-3.2409,-3.2331,-3.2334,-3.2337,-3.2338,-3.2555,-3.2559,0,0,0,0,0,0,-3.2291,-3.2293,-3.2363,-3.2364,-3.2298,-3.2311,-3.2313,-3.2333,-3.2333,-3.233,-3.2309,-3.2303,-3.2328,-3.2331,-3.2336,-3.2439,-3.2335,-3.2338,-3.2341,-3.2552,-3.2556,-3.256,0,0,0,0,0,0,-3.2289,-3.2297,-3.2362,-3.2327,-3.2334,-3.2316,-3.234,-3.2335,-3.2346,-3.2334,-3.233,-3.2325,-3.2325,-3.2331,-3.239,-3.2438,-3.234,-3.2344,-3.2548,-3.2553,-3.2558,-3.2645,0,0,0,0,0,0,-3.2286,-3.2297,-3.233,-3.2329,-3.2336,-3.2416,-3.2343,-3.2337,-3.2353,-3.2345,-3.2347,-3.2345,-3.2323,-3.2385,-3.2394,-3.2442,-3.2346,-3.2543,-3.255,-3.2556,-3.2638,-3.2653,-3.2666,0,0,0,0,0,-3.2283,-3.2354,-3.2332,-3.2341,-3.2377,-3.2419,-3.2424,-3.2397,-3.2357,-3.239,-3.2382,-3.2345,-3.2432,-3.2392,-3.2401,-3.2451,-3.254,-3.2548,-3.2556,-3.2632,-3.265,-3.2665,0,0,0,0,0,0,-3.2361,-3.2353,-3.2329,-3.2401,-3.2412,-3.2407,-3.2447,-3.2417,-3.2439,-3.2431,-3.2397,-3.2398,-3.2464,-3.2463,-3.2418,-3.2536,-3.2479,-3.2489,-3.2534,-3.2551,-3.2565,-3.2562,-3.235,0,0,0,0,0,-3.2387,-3.2421,-3.2413,-3.2477,-3.2484,-3.2465,-3.2482,-3.2462,-3.2471,-3.2474,-3.2471,-3.2481,-3.2511,-3.2531,-3.2558,-3.2639,-3.2638,-3.2678,-3.2691,-3.2703,-3.2711,-3.2754,-3.2771,-3.2586,-3.2586,-3.2586,0,0,-3.244,-3.244,-3.2463,-3.2493,-3.2498,-3.2535,-3.2469,-3.2511,-3.2537,-3.2481,-3.2536,-3.2535,-3.2544,-3.2615,-3.2645,-3.2616,-3.2763,-3.2713,-3.2722,-3.2724,-3.2764,-3.2782,-3.2797,-3.2591,-3.259,-3.2589,0,0,-3.2555,-3.2559,-3.2613,-3.262,-3.263,-3.2617,-3.2631,-3.2631,-3.2627,-3.2683,-3.2641,-3.2673,-3.2726,-3.2734,-3.2745,-3.2866,-3.2832,-3.2876,-3.2948,-3.299,-3.3004,-3.3017,-3.306,-3.3075,-3.2885,-3.2886,-3.2886,0,-3.2619,-3.2673,-3.2645,-3.2689,-3.2704,-3.2655,-3.271,-3.2719,-3.2736,-3.2747,-3.2715,-3.278,-3.2783,-3.2855,-3.2885,-3.2896,-3.291,-3.2875,-3.3005,-3.3017,-3.3029,-3.3069,-3.3085,-3.2891,-3.289,-3.289,-3.2889,0,-3.2752,-3.279,-3.2833,-3.2851,-3.2871,-3.292,-3.29,-3.2923,-3.2902,-3.2893,-3.2951,-3.2953,-3.2979,-3.2995,-3.2974,-3.3065,-3.3046,-3.301,-3.2951,-3.3052,-3.3089,-3.3104,-3.2898,-3.2896,-3.2895,-3.2893,0,0,-3.2914,-3.2918,-3.2934,-3.2942,-3.295,-3.2979,-3.3027,-3.3053,-3.3074,-3.3088,-3.3127,-3.3174,-3.3141,-3.3154,-3.3133,-3.3171,-3.3266,-3.313,-3.3129,-3.3154,-3.3365,-3.3391,-3.3409,-3.3245,-3.3247,-3.325,-3.3364,0,-3.3026,-3.3107,-3.3084,-3.3166,-3.3201,-3.3157,-3.3199,-3.3208,-3.3202,-3.3231,-3.3224,-3.3257,-3.3211,-3.3218,-3.3253,-3.3247,-3.3308,-3.3239,-3.328,-3.3282,-3.3277,-3.3429,-3.3456,-3.3564,-3.3378,-3.3381,-3.3383,0,-3.3166,-3.3187,-3.3273,-3.3275,-3.3289,-3.3327,-3.335,-3.3378,-3.3389,-3.3382,-3.3398,-3.337,-3.3418,-3.3361,-3.3427,-3.338,-3.3396,-3.3396,-3.34,-3.3401,-3.3337,-3.3433,-3.3598,-3.3613,-3.3405,-3.3404,-3.3402,0,-3.3275,-3.3324,-3.3381,-3.339,-3.3395,-3.3423,-3.3427,-3.3434,-3.3452,-3.3472,-3.3483,-3.351,-3.3523,-3.3544,-3.3525,-3.3486,-3.3593,-3.3535,-3.3588,-3.3589,-3.3611,-3.3609,-3.3779,-3.3625,-3.3625,-3.3624,-3.3624,0,-3.3401,-3.3455,-3.343,-3.3465,-3.3525,-3.3499,-3.3558,-3.3557,-3.3564,-3.3598,-3.3563,-3.3596,-3.3569,-3.36,-3.3586,-3.3642,-3.3649,-3.3644,-3.3639,-3.3646,-3.3647,-3.3655,-3.3646,-3.3628,-3.3628,-3.3627,-3.3626,0,-3.3531,-3.3517,-3.3576,-3.3577,-3.3579,-3.3622,-3.3623,-3.3655,-3.3648,-3.3692,-3.3701,-3.3688,-3.3723,-3.3707,-3.3743,-3.3733,-3.3805,-3.3791,-3.3802,-3.3797,-3.3851,-3.3846,-3.403,-3.4053,-3.3886,-3.3887,-3.3889,0,-3.3611,-3.3651,-3.3657,-3.3677,-3.3684,-3.3717,-3.3735,-3.3713,-3.3733,-3.3749,-3.378,-3.3812,-3.3836,-3.3894,-3.3888,-3.3916,-3.3901,-3.3965,-3.3905,-3.3911,-3.3901,-3.3898,-3.3902,-3.3975,-3.3977,-3.3979,-3.398,0,-3.3755,-3.3746,-3.3774,-3.38,-3.3823,-3.3842,-3.3858,-3.3877,-3.3855,-3.388,-3.3915,-3.3934,-3.3972,-3.4004,-3.4029,-3.4032,-3.4003,-3.4,-3.4013,-3.4019,-3.4023,-3.4021,-3.3832,-3.3995,-3.3993,-3.3992,-3.3991,-3.3991,-3.3861,-3.3895,-3.3905,-3.3937,-3.3947,-3.3963,-3.3994,-3.3991,-3.402,-3.4048,-3.4034,-3.4075,-3.4086,-3.4117,-3.4125,-3.4157,-3.4132,-3.4152,-3.4157,-3.4161,-3.4168,-3.402,-3.4162,-3.4161,-3.4161,-3.416,-3.416,0,-3.4002,-3.4006,-3.4037,-3.406,-3.4086,-3.4058,-3.4075,-3.4098,-3.4134,-3.4147,-3.4172,-3.4213,-3.4245,-3.4243,-3.4272,-3.4298,-3.4285,-3.4306,-3.4303,-3.4304,-3.4189,-3.4174,-3.4316,-3.4316,-3.4316,-3.4316,-3.4316,-3.4316,-3.4078,-3.4134,-3.4127,-3.4188,-3.4192,-3.4232,-3.4244,-3.4259,-3.4269,-3.4317,-3.4343,-3.4342,-3.4349,-3.4378,-3.4406,-3.4405,-3.4417,-3.4442,-3.4436,-3.4328,-3.4312,-3.4298,-3.4283,-3.4446,-3.4446,-3.4548,-3.4549,-3.455]},{"header":{"parameterUnit":"m.s-1","parameterCategory":1,"la1":30.2991,"la2":30.254,"lo1":-89.0895,"lo2":-89.0444,"dy":0.0017,"dx":0.0017,"nx":28,"ny":28,"refTime":"2025-11-19T03:00:00:Z","depth":0,"parameterNumber":3,"parameterNumberName":"V-component_of_WINDS"},"data":[0,0,0,0,0,0,0,0,0,0,0,0,0,0,0,0,0,0,0,0,0,0,0,0,0,0,0,0,0,0,0,0,0,0,0,0,0,0,0,0,0,0,0,0,0,0,0,0,0,0,0,0,0,0,0,0,0,0,0.9388,0.9388,0,0.9409,0.9409,0.941,0.9406,0.9405,0.9405,0.9405,0.9425,0.9425,0.9426,0,0,0,0,0,0,0,0,0,0,0,0,0,0.9345,0.9346,0.9388,0.9388,0.9389,0.9409,0.9409,0.941,0.9406,0.9405,0.9405,0.9404,0.9424,0.9425,0.9426,0,0,0,0,0,0,0,0,0,0,0,0,0,0.9364,0.9346,0.9388,0.9389,0.9389,0.9409,0.9409,0.941,0.9406,0.9405,0.9405,0.9404,0.9424,0.9425,0.9426,0.9446,0,0,0.9431,0.9431,0,0,0,0,0,0,0,0,0.9363,0.9366,0.9389,0.9389,0.939,0.9404,0.9401,0.9422,0.9406,0.94,0.9405,0.9404,0.9418,0.942,0.9425,0.9447,0.9448,0.9431,0.9431,0.9432,0.9432,0,0,0,0,0,0,0,0.9362,0.9365,0.9396,0.9389,0.939,0.9389,0.9391,0.9405,0.9412,0.94,0.94,0.9403,0.9418,0.9424,0.9425,0.9448,0.9431,0.9432,0.9433,0.9433,0.9489,0.949,0,0,0,0,0,0,0.936,0.9364,0.9396,0.9397,0.9375,0.939,0.9392,0.94,0.9412,0.9413,0.9403,0.9402,0.9422,0.9424,0.9426,0.9451,0.9432,0.9433,0.9434,0.9489,0.949,0.949,0,0,0,0,0,0,0.9359,0.9363,0.9395,0.9381,0.9385,0.9391,0.94,0.9401,0.9406,0.9414,0.9415,0.9407,0.9421,0.9424,0.9442,0.9452,0.9434,0.9435,0.9488,0.9489,0.949,0.9501,0,0,0,0,0,0,0.9358,0.9363,0.937,0.9381,0.9385,0.941,0.9401,0.9402,0.9409,0.9408,0.9418,0.9419,0.9421,0.944,0.9443,0.9453,0.9436,0.9487,0.9488,0.949,0.95,0.9502,0.9504,0,0,0,0,0,0.9357,0.9371,0.937,0.9374,0.9394,0.941,0.9413,0.9415,0.941,0.9417,0.9422,0.9419,0.945,0.9442,0.9445,0.9456,0.9486,0.9488,0.9489,0.9499,0.9502,0.9504,0,0,0,0,0,0,0.936,0.9373,0.9372,0.939,0.94,0.941,0.9419,0.9418,0.9429,0.9428,0.943,0.9432,0.945,0.9455,0.9445,0.9477,0.9468,0.947,0.9473,0.9476,0.9479,0.9477,0.9437,0,0,0,0,0,0.9363,0.9376,0.9386,0.9401,0.9406,0.9412,0.9419,0.942,0.943,0.9433,0.944,0.9449,0.9461,0.9469,0.948,0.95,0.9504,0.951,0.9512,0.9514,0.9516,0.953,0.9533,0.9496,0.9495,0.9495,0,0,0.9369,0.9378,0.9385,0.9402,0.9409,0.9423,0.9415,0.9428,0.9439,0.9435,0.9453,0.9458,0.9468,0.9488,0.9497,0.9492,0.9528,0.9516,0.9518,0.9519,0.9532,0.9535,0.9539,0.9497,0.9496,0.9496,0,0,0.9388,0.9395,0.9409,0.9418,0.943,0.9434,0.9438,0.9449,0.9453,0.947,0.9469,0.9481,0.9501,0.9509,0.9516,0.9541,0.9539,0.9544,0.9557,0.957,0.9573,0.9576,0.9586,0.959,0.9546,0.9547,0.9547,0,0.9394,0.9414,0.9417,0.9432,0.944,0.9439,0.9455,0.9462,0.9477,0.9483,0.9478,0.9505,0.9512,0.9535,0.9541,0.9546,0.9551,0.9543,0.9572,0.9575,0.9578,0.9588,0.9591,0.9547,0.9547,0.9547,0.9547,0,0.9421,0.9435,0.9446,0.9462,0.9471,0.9486,0.9493,0.9502,0.9503,0.9508,0.9527,0.9536,0.955,0.9556,0.9556,0.9579,0.9576,0.9572,0.9563,0.9582,0.9592,0.9595,0.9548,0.9548,0.9548,0.9548,0,0,0.944,0.9461,0.9464,0.9473,0.9487,0.9498,0.9514,0.9529,0.9538,0.9548,0.9563,0.9581,0.9578,0.9586,0.9588,0.9599,0.9621,0.9593,0.9594,0.9599,0.9649,0.9653,0.9657,0.9619,0.962,0.9621,0.9649,0,0.9461,0.949,0.9495,0.952,0.9534,0.9535,0.9549,0.9559,0.9565,0.9578,0.9584,0.9598,0.9592,0.9597,0.9609,0.9616,0.9631,0.9613,0.9633,0.9634,0.9631,0.9662,0.9666,0.9692,0.9652,0.9653,0.9653,0,0.9488,0.9502,0.9529,0.9544,0.955,0.9563,0.9579,0.9591,0.9604,0.9607,0.9618,0.9619,0.9636,0.9626,0.9651,0.9639,0.9648,0.9653,0.9654,0.9656,0.9645,0.9666,0.97,0.9704,0.9659,0.9658,0.9658,0,0.9502,0.9527,0.9547,0.9554,0.9571,0.9581,0.9588,0.9601,0.9611,0.9624,0.9631,0.9646,0.9654,0.9666,0.9672,0.9664,0.9697,0.9687,0.9702,0.9702,0.9708,0.9708,0.9745,0.9712,0.9712,0.9712,0.9712,0,0.9525,0.9542,0.9554,0.9566,0.9585,0.9591,0.9611,0.9618,0.963,0.9644,0.9645,0.9659,0.9665,0.968,0.9684,0.9705,0.9708,0.9712,0.9714,0.9713,0.9713,0.9719,0.9718,0.9713,0.9713,0.9713,0.9713,0,0.9543,0.9551,0.9573,0.959,0.9594,0.9608,0.9622,0.9634,0.9641,0.9659,0.9664,0.9675,0.9692,0.9699,0.972,0.9723,0.9748,0.9747,0.9744,0.9745,0.9759,0.9758,0.9802,0.9809,0.9771,0.9771,0.9771,0,0.9557,0.957,0.9589,0.9599,0.9608,0.9624,0.9635,0.9642,0.9653,0.967,0.9681,0.9699,0.9714,0.9742,0.9752,0.9769,0.9769,0.9783,0.9771,0.9771,0.9771,0.977,0.9773,0.9785,0.9786,0.9786,0.9786,0,0.9582,0.9586,0.9602,0.962,0.9633,0.9648,0.9661,0.967,0.9679,0.9692,0.9711,0.9722,0.9746,0.9764,0.9782,0.979,0.979,0.979,0.9795,0.9794,0.9793,0.9795,0.9751,0.9789,0.9789,0.9788,0.9788,0.9788,0.9599,0.9612,0.9628,0.9646,0.9658,0.9672,0.9685,0.9695,0.9711,0.9731,0.9734,0.9755,0.977,0.9794,0.9804,0.982,0.9817,0.9823,0.9824,0.9826,0.9828,0.979,0.9823,0.9823,0.9823,0.9823,0.9823,0,0.9626,0.9637,0.9654,0.9674,0.9689,0.9689,0.9705,0.9718,0.9736,0.9751,0.9766,0.9789,0.9808,0.982,0.9839,0.985,0.9851,0.9855,0.9855,0.9857,0.9829,0.9824,0.9854,0.9854,0.9854,0.9854,0.9854,0.9854,0.9641,0.9664,0.9671,0.97,0.9711,0.9732,0.9742,0.9755,0.9767,0.9793,0.9809,0.9817,0.9831,0.9852,0.987,0.9873,0.988,0.9885,0.9888,0.9862,0.9859,0.9855,0.9851,0.9886,0.9886,0.9914,0.9915,0.9915]}]]